This is the latest recevied weather packets stored in our database for station/object KD8OZS. If no packets are shown the sender has not sent any weather packets the latest 10 day(s).
| Time | Temp. | Humidity | Pressure | Rain* | Wind** | Luminosity | Snow |
|---|---|---|---|---|---|---|---|
| 1778188158 | 13.89° C | 45% | 1004.8 hPa | 0 mm | - | 487 W/m² | - |
| 1778187855 | 14.44° C | 46% | 1005 hPa | 0 mm | - | 505 W/m² | - |
| 1778187551 | 14.44° C | 45% | 1004.8 hPa | 0 mm | - | 479 W/m² | - |
| 1778187249 | 14.44° C | 46% | 1004.8 hPa | 0 mm | - | 476 W/m² | - |
| 1778186944 | 14.44° C | 46% | 1004.8 hPa | 0 mm | - | 491 W/m² | - |
| 1778186641 | 14.44° C | 46% | 1004.7 hPa | 0 mm | - | 497 W/m² | - |
| 1778186339 | 13.89° C | 49% | 1004.7 hPa | 0 mm | - | 533 W/m² | - |
| 1778186037 | 15° C | 46% | 1005 hPa | 0 mm | - | 537 W/m² | - |
| 1778185733 | 13.89° C | 51% | 1004.9 hPa | 0 mm | - | 593 W/m² | - |
| 1778185429 | 14.44° C | 46% | 1004.7 hPa | 0 mm | - | 610 W/m² | - |
| 1778185125 | 14.44° C | 46% | 1004.6 hPa | 0 mm | - | 610 W/m² | - |
| 1778184820 | 14.44° C | 46% | 1004.6 hPa | 0 mm | - | 331 W/m² | - |
| 1778184517 | 14.44° C | 44% | 1004.8 hPa | 0 mm | - | 543 W/m² | - |
| 1778184213 | 12.78° C | 48% | 1005 hPa | 0 mm | - | 298 W/m² | - |
| 1778183909 | 12.78° C | 51% | 1005.1 hPa | 0 mm | - | 157 W/m² | - |
| 1778183607 | 12.78° C | 52% | 1005.1 hPa | 0 mm | - | 215 W/m² | - |
| 1778183304 | 13.89° C | 51% | 1005.2 hPa | 0 mm | - | 201 W/m² | - |
| 1778183000 | 13.33° C | 50% | 1005 hPa | 0 mm | - | 184 W/m² | - |
| 1778182697 | 13.89° C | 50% | 1005.1 hPa | 0 mm | - | 149 W/m² | - |
| 1778182394 | 12.78° C | 51% | 1005.1 hPa | 0 mm | - | 204 W/m² | - |
| 1778182089 | 13.89° C | 50% | 1004.9 hPa | 0 mm | - | 158 W/m² | - |
| 1778181787 | 15° C | 46% | 1005.2 hPa | 0 mm | - | 713 W/m² | - |
| 1778181483 | 15.56° C | 53% | 1005.2 hPa | 0 mm | - | 727 W/m² | - |
| 1778181179 | 15° C | 48% | 1005.2 hPa | 0 mm | - | 787 W/m² | - |
| 1778180876 | 15° C | 48% | 1005.3 hPa | 0 mm | - | 812 W/m² | - |
* Rain latest hour (hover to see other rain measurements)
** Current wind speed in m/s (hover to see current wind gust speed)